Location: East Guldeford
(50.9500°N, 0.7500°E)
Time: 17:00:06
(UTC+00:00)

USA 305 - Pass Details

Date: 12 May 2021
Orbit: 567 x 573 km, 54.0° (Epoch: 07 May)

Event Time Altitude Azimuth Distance (km) Brightness Sun altitude
Rises 22:01:32 0° 291° (WNW) 2,775 7.2 -16.5°
Reaches altitude 10° 22:04:06 10° 277° (W) 1,875 6.0 -16.6°
Maximum altitude 22:07:30 23° 224° (SW) 1,222 4.4 -16.9°
Enters shadow 22:08:26 22° 204° (SSW) 1,282 4.3 -16.9°
